Location: Azul
(36.7830°S, 59.8500°W)
Time: 01:42:39
(UTC-03:00)

HuskySat-1 - Pass Details

Date: 26 October 2021
Orbit: 443 x 456 km, 51.6° (Epoch: 04 December)

Event Time Altitude Azimuth Distance (km) Brightness Sun altitude
Exits shadow 03:17:22 21° 115° (ESE) 1,073 ? -28.8°
Drops below altitude 10° 03:19:11 10° 90° (E) 1,599 ? -28.6°
Sets 03:21:32 0° 77° (ENE) 2,463 ? -28.2°
